Location: Macksville High School
(37.9611°N, 99.9654°W)
Time: 00:17:19
(UTC+00:00)

NOSS 0 Rocket - Pass Details

Date: 17 January 2021
Orbit: 937 x 952 km, 70.0° (Epoch: 07 March)

Event Time Altitude Azimuth Distance (km) Brightness Sun altitude
Rises 12:20:54 0° 195° (SSW) 3,600 7.0 -18.1°
Reaches altitude 10° 12:23:25 10° 193° (SSW) 2,656 6.3 -17.6°
Maximum altitude 12:29:33 70° 110° (ESE) 998 4.2 -16.4°
Drops below altitude 10° 12:35:41 10° 28° (NNE) 2,662 6.5 -15.2°
Sets 12:38:13 0° 27° (NNE) 3,608 7.1 -14.8°
